This is the latest recevied weather packets stored in our database for station/object KD8JAM. If no packets are shown the sender has not sent any weather packets the latest 10 day(s).
| Time | Temp. | Humidity | Pressure | Rain* | Wind** | Luminosity | Snow |
|---|---|---|---|---|---|---|---|
| 1777813215 | 11.11° C | 74% | 1004.8 hPa | 0 mm | - | 237 W/m² | - |
| 1777812912 | 9.44° C | 75% | 1004.9 hPa | 0 mm | - | 216 W/m² | - |
| 1777812609 | 6.67° C | 79% | 1004.9 hPa | 0 mm | - | 170 W/m² | - |
| 1777812306 | 5.56° C | 77% | 1004.9 hPa | 0 mm | - | 170 W/m² | - |
| 1777812004 | 5° C | 79% | 1005.1 hPa | 0 mm | - | 87 W/m² | - |
| 1777811703 | 4.44° C | 80% | 1005.1 hPa | 0 mm | - | 104 W/m² | - |
| 1777811397 | 4.44° C | 82% | 1005.1 hPa | 0 mm | - | 68 W/m² | - |
| 1777811095 | 4.44° C | 81% | 1005.2 hPa | 0 mm | - | 65 W/m² | - |
| 1777810792 | 4.44° C | 83% | 1005.2 hPa | 0 mm | - | 75 W/m² | - |
| 1777810489 | 3.89° C | 83% | 1005.3 hPa | 0 mm | - | 60 W/m² | - |
| 1777810185 | 3.89° C | 84% | 1005.2 hPa | 0 mm | - | 52 W/m² | - |
| 1777809882 | 3.89° C | 85% | 1005.4 hPa | 0 mm | - | 69 W/m² | - |
| 1777809580 | 3.89° C | 84% | 1005.3 hPa | 0 mm | - | 68 W/m² | - |
| 1777809277 | 3.33° C | 82% | 1005.3 hPa | 0 mm | - | 53 W/m² | - |
| 1777808975 | 3.33° C | 81% | 1005.7 hPa | 0 mm | - | 51 W/m² | - |
| 1777808672 | 3.33° C | 81% | 1005.4 hPa | 0 mm | - | 45 W/m² | - |
| 1777808368 | 3.33° C | 81% | 1005.5 hPa | 0 mm | - | 36 W/m² | - |
| 1777808067 | 3.33° C | 81% | 1005.7 hPa | 0 mm | - | 34 W/m² | - |
| 1777807764 | 2.78° C | 80% | 1005.6 hPa | 0 mm | - | 32 W/m² | - |
| 1777807462 | 3.33° C | 80% | 1005.7 hPa | 0 mm | - | 29 W/m² | - |
| 1777807157 | 3.33° C | 80% | 1005.7 hPa | 0 mm | - | 30 W/m² | - |
| 1777806855 | 3.33° C | 80% | 1005.8 hPa | 0 mm | - | 24 W/m² | - |
| 1777806551 | 2.78° C | 79% | 1005.6 hPa | 0 mm | - | 19 W/m² | - |
| 1777806247 | 2.78° C | 79% | 1005.5 hPa | 0 mm | - | 16 W/m² | - |
| 1777805944 | 2.78° C | 79% | 1005.8 hPa | 0 mm | - | 11 W/m² | - |
* Rain latest hour (hover to see other rain measurements)
** Current wind speed in m/s (hover to see current wind gust speed)